Weather History for Port Lavaca, TX

Change the Weather History Date:

Monday, November 18, 2013

  Actual Average (KVCT) Record (KVCT)
Temperature  
Mean Temperature 74 °F 62 °F  
Max Temperature 81 °F 73 °F 88 °F (1973)
Min Temperature 66 °F 51 °F 26 °F (1959)
Degree Days  
Heating Degree Days 0 5  
Month to date heating degree days 61  
Since 1 July heating degree days 84  
Cooling Degree Days 8 2  
Month to date cooling degree days 60  
Year to date cooling degree days 3103  
Growing Degree Days 24 (Base 50)    
Moisture  
Dew Point 67 °F    
Average Humidity 87    
Maximum Humidity 98    
Minimum Humidity 68    
Precipitation  
Precipitation 0.22 in 0.11 in 1.42 in (2000)
Month to date precipitation 2.03  
Year to date precipitation 37.70  
Sea Level Pressure  
Sea Level Pressure 30.01 in    
Wind  
Wind Speed 4 mph (NE)    
Max Wind Speed 17 mph    
Max Gust Speed -    
Visibility 5 miles    
Events Fog , Rain    
T = Trace of Precipitation, MM = Missing Value Source: NWS Daily Summary

Daily Weather History Graph

Daily Weather History Graph

Search for Another Location

Airport:

Trip Planner

Search our weather history database for the weather conditions in past years. The results will help you decide how hot, cold, wet, or windy it might be!

Date:

Astronomy

Nov. 18, 2013 Rise Set
Actual Time 6:52 AM CST 5:31 PM CST
Civil Twilight 6:26 AM CST 5:56 PM CST
Nautical Twilight 5:58 AM CST 6:25 PM CST
Astronomical Twilight 5:30 AM CST 6:53 PM CST
Moon 6:36 PM CST 7:40 AM CST
Length of Visible Light 11h 29m
Length of Day
10h 39m
Full, 99% of the Moon is Illuminated
Nov 18
Full
Nov 25
Last Quarter
Dec 2
New
Dec 9
First Quarter
Dec 17
Full

Hourly Weather History & Observations

Time (CST) Temp. Heat Index Dew Point Humidity Pressure Visibility Wind Dir Wind Speed Gust Speed Precip Events Conditions
12:35 AM 67.6 °F - 66.6 °F 96% 29.93 in 1.2 mi Calm Calm - N/A   Overcast
1:15 AM 67.6 °F - 66.7 °F 97% 29.93 in 0.2 mi Calm Calm - N/A Fog Fog
2:15 AM 67.6 °F - 66.9 °F 98% 29.94 in 0.2 mi Calm Calm - N/A Fog Fog
2:35 AM 68.0 °F - 67.3 °F 98% 29.94 in 0.2 mi NE 3.5 mph - N/A Fog Fog
3:15 AM 68.4 °F - 67.6 °F 98% 29.95 in 1.0 mi Calm Calm - N/A   Overcast
3:35 AM 69.1 °F - 68.4 °F 98% 29.95 in 1.2 mi Calm Calm - N/A   Overcast
4:15 AM 69.8 °F - 69.1 °F 98% 29.95 in 0.5 mi East 3.5 mph - N/A Fog Fog
4:35 AM 70.0 °F - 69.3 °F 98% 29.95 in 0.2 mi Calm Calm - N/A Fog Fog
4:55 AM 70.2 °F - 69.4 °F 98% 29.95 in 0.2 mi Calm Calm - N/A Fog Fog
5:15 AM 70.2 °F - 69.4 °F 98% 29.95 in 0.2 mi Calm Calm - N/A Fog Fog
5:35 AM 70.3 °F - 69.8 °F 98% 29.96 in 0.2 mi Calm Calm - N/A Fog Fog
5:55 AM 70.5 °F - 69.8 °F 98% 29.97 in 1.2 mi Calm Calm - N/A   Overcast
6:15 AM 70.7 °F - 69.8 °F 97% 29.97 in 1.8 mi Calm Calm - N/A   Overcast
6:35 AM 71.6 °F - 70.7 °F 97% 29.98 in 0.5 mi Calm Calm - N/A Fog Fog
6:55 AM 71.6 °F - 70.7 °F 97% 29.98 in 0.5 mi Calm Calm - N/A Fog Fog
7:15 AM 71.6 °F - 70.7 °F 97% 29.99 in 0.5 mi Calm Calm - N/A Fog Fog
7:35 AM 71.6 °F - 70.9 °F 98% 29.99 in 0.5 mi Calm Calm - N/A Fog Fog
7:55 AM 71.8 °F - 71.1 °F 98% 30.00 in 0.8 mi Calm Calm - N/A   Overcast
8:15 AM 72.0 °F - 71.1 °F 97% 30.00 in 1.5 mi WNW 3.5 mph - N/A   Overcast
8:35 AM 71.8 °F - 70.9 °F 97% 30.01 in 1.5 mi NNW 4.6 mph - N/A   Overcast
8:55 AM 72.0 °F - 71.1 °F 97% 30.03 in 1.5 mi North 6.9 mph - N/A   Overcast
9:15 AM 71.6 °F - 70.7 °F 97% 30.03 in 1.5 mi North 8.1 mph - N/A   Overcast
9:35 AM 71.6 °F - 70.7 °F 97% 30.03 in 1.5 mi North 6.9 mph - N/A   Overcast
9:55 AM 71.6 °F - 70.7 °F 97% 30.03 in 1.5 mi North 6.9 mph - N/A   Overcast
10:15 AM 72.0 °F - 71.1 °F 97% 30.03 in 1.5 mi NE 8.1 mph - N/A   Overcast
10:35 AM 72.1 °F - 71.2 °F 97% 30.03 in 1.5 mi NE 6.9 mph - N/A   Overcast
10:55 AM 72.3 °F - 71.4 °F 97% 30.03 in 1.8 mi NE 6.9 mph - N/A   Overcast
11:15 AM 72.5 °F - 71.6 °F 97% 30.03 in 3.0 mi NNE 8.1 mph - N/A   Overcast
11:35 AM 73.0 °F - 72.0 °F 96% 30.02 in 5.0 mi ENE 8.1 mph - N/A   Overcast
11:55 AM 73.2 °F - 72.0 °F 96% 30.01 in 5.0 mi East 9.2 mph - N/A   Overcast
12:15 PM 75.6 °F - 72.0 °F 89% 30.00 in 7.0 mi East 9.2 mph - N/A   Overcast
12:35 PM 77.0 °F - 71.6 °F 83% 30.00 in 7.0 mi NE 5.8 mph - N/A   Overcast
12:55 PM 77.5 °F - 71.8 °F 82% 29.99 in 7.0 mi NE 5.8 mph - N/A   Overcast
1:15 PM 79.3 °F - 71.6 °F 77% 29.98 in 7.0 mi NE 6.9 mph - N/A   Mostly Cloudy
1:35 PM 80.1 °F 83.6 °F 71.2 °F 74% 29.98 in 10.0 mi NE 6.9 mph - N/A   Mostly Cloudy
1:55 PM 79.7 °F - 71.4 °F 76% 29.97 in 7.0 mi ENE 6.9 mph - N/A   Mostly Cloudy
2:15 PM 81.9 °F 86.4 °F 71.8 °F 71% 29.96 in 10.0 mi ENE 5.8 mph - N/A   Scattered Clouds
2:35 PM 79.9 °F - 71.1 °F 74% 29.97 in 7.0 mi ENE 8.1 mph - N/A   Scattered Clouds
2:55 PM 80.4 °F 84.4 °F 71.8 °F 75% 29.96 in 7.0 mi SE 6.9 mph - N/A   Scattered Clouds
3:15 PM 80.1 °F 83.8 °F 72.0 °F 76% 29.97 in 7.0 mi ESE 6.9 mph - N/A   Mostly Cloudy
3:35 PM 79.2 °F - 71.6 °F 78% 29.97 in 7.0 mi ESE 11.5 mph - N/A   Overcast
3:55 PM 77.7 °F - 71.6 °F 81% 29.97 in 5.0 mi ESE 11.5 mph - N/A   Haze
4:15 PM 74.5 °F - 70.3 °F 87% 29.98 in 3.0 mi ESE 16.1 mph - N/A   Overcast
4:35 PM 72.9 °F - 68.7 °F 87% 29.99 in 4.0 mi East 17.3 mph - N/A   Overcast
4:55 PM 70.7 °F - 67.1 °F 88% 30.01 in 1.5 mi East 9.2 mph - 0.12 in Rain Heavy Rain
5:15 PM 69.1 °F - 66.6 °F 92% 30.01 in 4.0 mi East 10.4 mph - 0.05 in Rain Rain
5:35 PM 68.2 °F - 65.5 °F 91% 30.01 in 5.0 mi East 8.1 mph - 0.10 in Rain Light Rain
5:55 PM 68.0 °F - 64.9 °F 90% 30.02 in 7.0 mi ENE 9.2 mph - 0.10 in   Light Drizzle
6:15 PM 68.0 °F - 64.0 °F 87% 30.02 in 10.0 mi NE 8.1 mph - N/A   Overcast
6:35 PM 68.0 °F - 63.1 °F 84% 30.03 in 10.0 mi NE 10.4 mph - N/A   Overcast
6:55 PM 67.8 °F - 61.3 °F 80% 30.04 in 10.0 mi NE 8.1 mph - N/A   Overcast
7:15 PM 67.5 °F - 61.2 °F 80% 30.04 in 10.0 mi NNE 8.1 mph - N/A   Overcast
7:35 PM 67.5 °F - 59.5 °F 76% 30.04 in 10.0 mi NE 10.4 mph - N/A   Mostly Cloudy
7:55 PM 67.3 °F - 57.4 °F 70% 30.05 in 10.0 mi ENE 11.5 mph - N/A   Mostly Cloudy
8:15 PM 66.7 °F - 56.8 °F 70% 30.05 in 10.0 mi ENE 10.4 mph - N/A   Mostly Cloudy
8:35 PM 66.6 °F - 56.5 °F 70% 30.06 in 10.0 mi NE 10.4 mph - N/A   Overcast
8:55 PM 67.1 °F - 56.3 °F 68% 30.07 in 10.0 mi NE 10.4 mph - N/A   Overcast
9:15 PM 66.9 °F - 57.2 °F 71% 30.08 in 10.0 mi NE 10.4 mph - N/A   Overcast
9:35 PM 66.6 °F - 58.5 °F 75% 30.08 in 10.0 mi NE 6.9 mph - N/A   Overcast
9:55 PM 66.7 °F - 58.5 °F 75% 30.08 in 10.0 mi NE 6.9 mph - N/A   Overcast
10:15 PM 66.2 °F - 58.8 °F 77% 30.08 in 10.0 mi NE 9.2 mph - N/A   Overcast
10:35 PM 66.4 °F - 57.7 °F 74% 30.08 in 10.0 mi NE 9.2 mph - N/A   Overcast
10:55 PM 66.6 °F - 57.0 °F 71% 30.08 in 10.0 mi NE 9.2 mph - N/A   Overcast
11:15 PM 66.9 °F - 57.4 °F 71% 30.08 in 10.0 mi NE 9.2 mph - N/A   Overcast
11:35 PM 66.7 °F - 56.8 °F 70% 30.07 in 10.0 mi NE 9.2 mph - N/A   Overcast
11:55 PM 66.7 °F - 56.5 °F 70% 30.06 in 10.0 mi NE 9.2 mph - N/A   Overcast